Location: Geçitköy
(36.7327°N, 29.8010°E)
Time: 19:05:25
(UTC+00:00)

NOSS 3-2 (A) - Pass Details

Date: 12 January 2026
Orbit: 669 x 1534 km, 63.4° (Epoch: 2 January)

Event Time Altitude Azimuth Distance (km) Brightness Sun altitude
Rises 15:13:52 0° 326° (NNW) 4,007 6.8 -2.4°
Reaches altitude 10° 15:16:23 10° 326° (NW) 3,155 6.3 -2.8°
Maximum altitude 15:24:13 82° 240° (WSW) 1,392 4.5 -4.3°
Drops below altitude 10° 15:33:23 10° 154° (SSE) 3,650 6.5 -6.0°
Sets 15:36:30 0° 154° (SSE) 4,663 7.0 -6.5°
